Hourly Weather Acatzingo de Hidalgo

Today, 17 January, Sunday

Time Temperature Precipitation Wind Pressure Humidity
00:00 +13°C° 0 mm 1 mps 587 mmHg 75%
01:00 +13°C° 0 mm 1 mps 587 mmHg 76%
02:00 +13°C° 0 mm 1 mps 586 mmHg 77%
03:00 +13°C° 0 mm 1 mps 586 mmHg 77%
04:00 +13°C° 0 mm 1 mps 586 mmHg 78%
05:00 +12°C° 0 mm 0 mps 586 mmHg 78%
06:00 +13°C° 0 mm 0 mps 587 mmHg 74%
07:00 +15°C° 0 mm 1 mps 588 mmHg 70%
08:00 +16°C° 0 mm 1 mps 588 mmHg 65%
09:00 +18°C° 0 mm 1 mps 589 mmHg 58%
10:00 +20°C° 0 mm 1 mps 590 mmHg 50%
11:00 +21°C° 0 mm 1 mps 590 mmHg 42%
12:00 +21°C° 0.1 mm 2 mps 590 mmHg 40%
13:00 +21°C° 0.1 mm 3 mps 589 mmHg 39%
14:00 +22°C° 0.1 mm 3 mps 589 mmHg 37%
15:00 +21°C° 0.3 mm 3 mps 589 mmHg 41%
16:00 +20°C° 0.3 mm 3 mps 589 mmHg 45%
17:00 +19°C° 0.3 mm 2 mps 589 mmHg 49%
18:00 +18°C° 0.4 mm 2 mps 589 mmHg 55%
19:00 +16°C° 0.4 mm 2 mps 589 mmHg 60%
20:00 +15°C° 0.4 mm 2 mps 589 mmHg 66%
21:00 +15°C° 0.1 mm 2 mps 589 mmHg 69%
22:00 +14°C° 0.1 mm 2 mps 589 mmHg 72%
23:00 +14°C° 0.1 mm 2 mps 589 mmHg 76%

Tomorrow, 18 January, Monday

Time Temperature Precipitation Wind Pressure Humidity
00:00 +13°C° 0 mm 2 mps 588 mmHg 79%
01:00 +12°C° 0 mm 1 mps 587 mmHg 82%
02:00 +12°C° 0 mm 1 mps 587 mmHg 85%
03:00 +11°C° 0 mm 1 mps 587 mmHg 86%
04:00 +11°C° 0 mm 1 mps 587 mmHg 87%
05:00 +11°C° 0 mm 1 mps 587 mmHg 87%
06:00 +12°C° 0 mm 1 mps 588 mmHg 81%
07:00 +13°C° 0 mm 1 mps 589 mmHg 74%
08:00 +14°C° 0 mm 2 mps 589 mmHg 68%
09:00 +16°C° 0 mm 2 mps 590 mmHg 62%
10:00 +17°C° 0 mm 2 mps 590 mmHg 56%
11:00 +19°C° 0 mm 3 mps 590 mmHg 50%
12:00 +20°C° 0 mm 3 mps 590 mmHg 48%
13:00 +20°C° 0 mm 4 mps 590 mmHg 45%
14:00 +21°C° 0 mm 4 mps 589 mmHg 43%
15:00 +20°C° 0 mm 4 mps 589 mmHg 47%
16:00 +18°C° 0 mm 4 mps 588 mmHg 52%
17:00 +17°C° 0 mm 4 mps 588 mmHg 57%
18:00 +16°C° 0 mm 3 mps 588 mmHg 64%
19:00 +15°C° 0 mm 2 mps 588 mmHg 70%
20:00 +13°C° 0 mm 2 mps 588 mmHg 77%
21:00 +13°C° 0 mm 1 mps 587 mmHg 78%
22:00 +13°C° 0 mm 1 mps 587 mmHg 79%
23:00 +12°C° 0 mm 1 mps 587 mmHg 79%

Day after tomorrow, 19 January, Tuesday

Time Temperature Precipitation Wind Pressure Humidity
00:00 +12°C° 0 mm 1 mps 587 mmHg 80%
01:00 +12°C° 0 mm 1 mps 587 mmHg 80%
02:00 +11°C° 0 mm 1 mps 586 mmHg 80%
03:00 +11°C° 0 mm 1 mps 586 mmHg 81%
04:00 +11°C° 0 mm 1 mps 586 mmHg 82%
05:00 +10°C° 0 mm 0 mps 586 mmHg 82%
06:00 +11°C° 0 mm 0 mps 588 mmHg 75%
07:00 +13°C° 0 mm 0 mps 589 mmHg 68%
08:00 +15°C° 0 mm 0 mps 590 mmHg 60%
09:00 +17°C° 0 mm 0 mps 591 mmHg 52%
10:00 +21°C° 0 mm 1 mps 591 mmHg 44%
11:00 +23°C° 0 mm 1 mps 592 mmHg 36%
12:00 +23°C° 0 mm 1 mps 591 mmHg 34%
13:00 +24°C° 0 mm 2 mps 591 mmHg 32%
14:00 +25°C° 0 mm 3 mps 591 mmHg 30%
15:00 +22°C° 0 mm 3 mps 590 mmHg 38%
16:00 +21°C° 0 mm 3 mps 590 mmHg 46%
17:00 +19°C° 0 mm 4 mps 589 mmHg 54%
18:00 +18°C° 0 mm 3 mps 589 mmHg 57%
19:00 +17°C° 0 mm 2 mps 590 mmHg 61%
20:00 +15°C° 0 mm 1 mps 590 mmHg 65%
21:00 +15°C° 0 mm 1 mps 589 mmHg 65%
22:00 +14°C° 0 mm 1 mps 589 mmHg 66%
23:00 +14°C° 0 mm 1 mps 589 mmHg 66%

20 January, Wednesday

Time Temperature Precipitation Wind Pressure Humidity
00:00 +13°C° 0 mm 1 mps 589 mmHg 67%
01:00 +13°C° 0 mm 1 mps 589 mmHg 68%
02:00 +12°C° 0 mm 1 mps 588 mmHg 70%
03:00 +12°C° 0 mm 2 mps 588 mmHg 71%
04:00 +12°C° 0 mm 2 mps 588 mmHg 72%
05:00 +12°C° 0 mm 2 mps 588 mmHg 73%
06:00 +13°C° 0 mm 2 mps 589 mmHg 70%
07:00 +14°C° 0 mm 2 mps 590 mmHg 67%
08:00 +15°C° 0 mm 2 mps 591 mmHg 64%
09:00 +17°C° 0 mm 3 mps 592 mmHg 60%
10:00 +18°C° 0 mm 3 mps 592 mmHg 57%
11:00 +20°C° 0 mm 3 mps 592 mmHg 53%
12:00 +20°C° 0 mm 4 mps 592 mmHg 50%
13:00 +20°C° 0 mm 4 mps 592 mmHg 47%
14:00 +20°C° 0 mm 5 mps 591 mmHg 44%
15:00 +19°C° 0 mm 5 mps 591 mmHg 43%
16:00 +18°C° 0 mm 4 mps 590 mmHg 43%
17:00 +17°C° 0 mm 4 mps 590 mmHg 42%
18:00 +15°C° 0 mm 4 mps 590 mmHg 43%
19:00 +13°C° 0 mm 3 mps 590 mmHg 45%
20:00 +12°C° 0 mm 3 mps 590 mmHg 46%
21:00 +11°C° 0 mm 3 mps 590 mmHg 46%
22:00 +12°C° 0 mm 2 mps 589 mmHg 47%
23:00 +10°C° 0 mm 2 mps 589 mmHg 47%

21 January, Thursday

Time Temperature Precipitation Wind Pressure Humidity
00:00 +10°C° 0 mm 2 mps 589 mmHg 49%
01:00 +9°C° 0 mm 2 mps 588 mmHg 51%
02:00 +9°C° 0 mm 2 mps 588 mmHg 53%
03:00 +9°C° 0 mm 2 mps 588 mmHg 56%
04:00 +9°C° 0 mm 2 mps 588 mmHg 59%
05:00 +9°C° 0 mm 1 mps 587 mmHg 62%
06:00 +11°C° 0 mm 1 mps 588 mmHg 59%
07:00 +12°C° 0 mm 1 mps 589 mmHg 57%
08:00 +14°C° 0 mm 1 mps 590 mmHg 54%
09:00 +16°C° 0 mm 2 mps 591 mmHg 49%
10:00 +18°C° 0 mm 2 mps 591 mmHg 45%
11:00 +21°C° 0 mm 2 mps 592 mmHg 40%
12:00 +21°C° 0 mm 3 mps 591 mmHg 37%
13:00 +22°C° 0 mm 4 mps 591 mmHg 34%
14:00 +23°C° 0 mm 5 mps 590 mmHg 31%
15:00 +22°C° 0 mm 4 mps 590 mmHg 36%
16:00 +20°C° 0 mm 4 mps 589 mmHg 41%
17:00 +19°C° 0 mm 4 mps 589 mmHg 46%
18:00 +18°C° 0 mm 3 mps 589 mmHg 54%
19:00 +16°C° 0 mm 2 mps 588 mmHg 62%
20:00 +14°C° 0 mm 1 mps 588 mmHg 69%
21:00 +14°C° 0 mm 1 mps 588 mmHg 71%
22:00 +13°C° 0 mm 1 mps 587 mmHg 73%
23:00 +13°C° 0 mm 1 mps 587 mmHg 75%

22 January, Friday

Time Temperature Precipitation Wind Pressure Humidity
00:00 +12°C° 0 mm 1 mps 587 mmHg 74%
01:00 +12°C° 0 mm 1 mps 586 mmHg 73%
02:00 +12°C° 0 mm 1 mps 586 mmHg 73%
03:00 +11°C° 0 mm 1 mps 586 mmHg 72%
04:00 +10°C° 0 mm 0 mps 586 mmHg 72%
05:00 +9°C° 0 mm 0 mps 586 mmHg 71%
06:00 +12°C° 0 mm 1 mps 587 mmHg 62%
07:00 +14°C° 0 mm 1 mps 588 mmHg 53%
08:00 +16°C° 0 mm 1 mps 589 mmHg 45%
09:00 +19°C° 0 mm 1 mps 590 mmHg 40%
10:00 +20°C° 0 mm 2 mps 590 mmHg 35%
11:00 +23°C° 0 mm 2 mps 591 mmHg 31%
12:00 +24°C° 0 mm 2 mps 590 mmHg 29%
13:00 +25°C° 0 mm 2 mps 590 mmHg 27%
14:00 +25°C° 0 mm 2 mps 590 mmHg 25%
15:00 +24°C° 0 mm 2 mps 589 mmHg 29%
16:00 +22°C° 0 mm 3 mps 589 mmHg 34%
17:00 +20°C° 0 mm 3 mps 588 mmHg 38%
18:00 +19°C° 0 mm 2 mps 588 mmHg 44%
19:00 +17°C° 0 mm 2 mps 588 mmHg 51%
20:00 +16°C° 0 mm 1 mps 588 mmHg 58%
21:00 +15°C° 0 mm 1 mps 588 mmHg 59%
22:00 +15°C° 0 mm 1 mps 587 mmHg 61%
23:00 +14°C° 0 mm 1 mps 587 mmHg 62%
Show more